Weather History for KOXR - November, 2012

Change the Weather History Date:

Friday, November 2, 2012

  Actual Average (KCMA) Record (KCMA)
Temperature  
Mean Temperature 59 °F 61 °F  
Max Temperature 66 °F 72 °F 98 °F (1997)
Min Temperature 52 °F 50 °F 41 °F (1956)
Degree Days  
Heating Degree Days 6 5  
Month to date heating degree days 10  
Since 1 July heating degree days 133  
Cooling Degree Days 0 1  
Month to date cooling degree days 2  
Year to date cooling degree days 318  
Growing Degree Days 9 (Base 50)    
Moisture  
Dew Point 52 °F    
Average Humidity 81    
Maximum Humidity 90    
Minimum Humidity 63    
Precipitation  
Precipitation 0.00 in 0.05 in 0.40 in (1983)
Month to date precipitation 0.11  
Year to date precipitation 11.96  
Since 1 July precipitation 0.98  
Sea Level Pressure  
Sea Level Pressure 29.97 in    
Wind  
Wind Speed 5 mph (NE)    
Max Wind Speed 13 mph    
Max Gust Speed -    
Visibility 8 miles    
Events      
T = Trace of Precipitation, MM = Missing Value Source: NWS Daily Summary

Daily Weather History Graph

Daily Weather History Graph

Search for Another Location

Airport or City:

Trip Planner

Search our weather history database for the weather conditions in past years. The results will help you decide how hot, cold, wet, or windy it might be!

Date:

Astronomy

Nov. 02, 2012 Rise Set
Actual Time 7:18 AM PDT 6:02 PM PDT
Civil Twilight 6:52 AM PDT 6:28 PM PDT
Nautical Twilight 6:22 AM PDT 6:57 PM PDT
Astronomical Twilight 5:53 AM PDT 7:27 PM PDT
Moon 8:58 PM PDT (11/2) 10:36 AM PDT (11/2)
Length of Visible Light 11h 36m
Length of Day
10h 44m
Waning Gibbous, 86% of the Moon is Illuminated
Nov 2
Waning Gibbous
Nov 6
Last Quarter
Nov 13
New
Nov 20
First Quarter
Nov 28
Full

Hourly Weather History & Observations

Time (PDT) Temp. Dew Point Humidity Pressure Visibility Wind Dir Wind Speed Gust Speed Precip Events Conditions
12:42 AM 55.4 °F 51.8 °F 88% 29.98 in 9.0 mi East 3.5 mph - N/A   Scattered Clouds
12:51 AM 55.0 °F 50.0 °F 83% 29.98 in 9.0 mi East 4.6 mph - N/A   Scattered Clouds
1:30 AM 55.4 °F 51.8 °F 88% 29.99 in 8.0 mi NE 4.6 mph - N/A   Mostly Cloudy
1:41 AM 55.4 °F 51.8 °F 88% 29.98 in 8.0 mi NE 5.8 mph - N/A   Scattered Clouds
1:51 AM 55.0 °F 50.0 °F 83% 29.98 in 8.0 mi ENE 5.8 mph - N/A   Scattered Clouds
1:58 AM 53.6 °F 50.0 °F 88% 29.98 in 8.0 mi ENE 5.8 mph - N/A   Mostly Cloudy
2:05 AM 53.6 °F 50.0 °F 88% 29.98 in 8.0 mi ENE 4.6 mph - N/A   Scattered Clouds
2:32 AM 53.6 °F 50.0 °F 88% 29.98 in 8.0 mi ENE 5.8 mph - N/A   Mostly Cloudy
2:51 AM 54.0 °F 50.0 °F 86% 29.98 in 8.0 mi NE 5.8 mph - N/A   Mostly Cloudy
3:16 AM 53.6 °F 48.2 °F 82% 29.97 in 8.0 mi ENE 5.8 mph - N/A   Scattered Clouds
3:51 AM 53.1 °F 48.9 °F 86% 29.97 in 7.0 mi ENE 6.9 mph - N/A   Clear
4:51 AM 53.1 °F 48.9 °F 86% 29.97 in 8.0 mi NE 5.8 mph - N/A   Clear
5:51 AM 52.0 °F 48.0 °F 86% 29.98 in 9.0 mi NE 5.8 mph - N/A   Clear
6:51 AM 52.0 °F 48.0 °F 86% 29.97 in 8.0 mi ENE 8.1 mph - N/A   Clear
7:51 AM 52.0 °F 48.0 °F 86% 29.99 in 6.0 mi ENE 4.6 mph - N/A   Clear
8:51 AM 55.9 °F 48.9 °F 77% 30.00 in 6.0 mi NE 6.9 mph - N/A   Haze
9:51 AM 62.1 °F 50.0 °F 65% 30.01 in 6.0 mi Variable 4.6 mph - N/A   Haze
10:51 AM 64.0 °F 53.1 °F 67% 30.02 in 10.0 mi Calm Calm - N/A   Clear
11:51 AM 66.0 °F 53.1 °F 63% 30.01 in 10.0 mi West 8.1 mph - N/A   Partly Cloudy
12:51 PM 66.0 °F 54.0 °F 65% 29.98 in 10.0 mi Variable 5.8 mph - N/A   Clear
1:51 PM 66.0 °F 54.0 °F 65% 29.95 in 10.0 mi West 9.2 mph - N/A   Clear
2:51 PM 66.0 °F 54.0 °F 65% 29.94 in 10.0 mi WSW 9.2 mph - N/A   Clear
3:51 PM 64.9 °F 54.0 °F 68% 29.94 in 10.0 mi West 10.4 mph - N/A   Clear
4:51 PM 64.9 °F 55.0 °F 70% 29.94 in 10.0 mi West 12.7 mph - N/A   Clear
5:51 PM 62.1 °F 57.0 °F 84% 29.94 in 10.0 mi WNW 9.2 mph - N/A   Scattered Clouds
6:51 PM 61.0 °F 57.0 °F 87% 29.94 in 10.0 mi Calm Calm - N/A   Clear
7:51 PM 61.0 °F 55.9 °F 83% 29.95 in 10.0 mi Calm Calm - N/A   Clear
8:51 PM 59.0 °F 55.9 °F 90% 29.96 in 7.0 mi Calm Calm - N/A   Clear
9:51 PM 59.0 °F 54.0 °F 83% 29.96 in 7.0 mi Calm Calm - N/A   Clear
10:51 PM 55.9 °F 53.1 °F 90% 29.96 in 7.0 mi ENE 3.5 mph - N/A   Clear
11:51 PM 55.0 °F 51.1 °F 86% 29.97 in 7.0 mi East 3.5 mph - N/A   Clear